Regional Weather Roundup
Issued by NWS

Home | Current Version | Previous Version | Text Only | Print | Product List | Glossary On
Versions: 1 2 3 4 5 6 7 8 9 10 11 12 13 14 15 16 17 18 19 20 21 22 23 24 25 26 27 28 29 30 31 32 33 34 35 36 37 38 39 40 41 42 43 44 45 46 47 48 49 50
000
ASUS43 KDTX 281501
RWRMI
MICHIGAN HOURLY REGIONAL WEATHER ROUNDUP
NATIONAL WEATHER SERVICE DETROIT/PONTIAC MI
1100 AM EDT SAT MAY 28 2016

NOTE: "FAIR" INDICATES FEW OR NO CLOUDS BELOW 12,000 FEET WITH NO
SIGNIFICANT WEATHER AND/OR OBSTRUCTION TO VISIBILITY.

MIZ047>049-052>055-059>063-066>070-074>076-081>083-281600-
SOUTHEAST LOWER MICHIGAN

CITY           SKY/WX    TMP DP  RH WIND       PRES   REMARKS
ADRIAN         MOSUNNY   80  66  62 SW10      30.06R
ALMA           CLOUDY    74  67  78 S12       30.00R
ANN ARBOR      MOSUNNY   80  66  62 SW9G17    30.05R
BAD AXE        MOSUNNY   82  66  57 SW16G24   30.03S
CARO           MOSUNNY   81  67  61 SW8       30.01F
DETROIT CITY   CLOUDY    82  65  56 S10       30.05S
DETROIT        PTSUNNY   83  66  56 SW12      30.05S
FLINT          PTSUNNY   84  64  50 S13       30.03S
GROSSE ILE     CLOUDY    73  66  78 SE7       30.05R
HILLSDALE      CLOUDY    73  65  76 S7        30.05S
HOWELL         PTSUNNY   79  65  61 S8        30.04R

CITY           SKY/WX    TMP DP  RH WIND       PRES   REMARKS
JACKSON        CLOUDY    73  68  84 S10       30.04S
LAMBERTVILLE   SUNNY     84  66  55 SW9       30.06R
LANSING        CLOUDY    76  66  71 S10       30.02R
LAPEER         FAIR      85  63  47 SW15      30.04S
MASON          CLOUDY    72  66  82 S8        30.03S
MONROE         CLOUDY    82  69  64 S10G20    30.04S
PONTIAC        PTSUNNY   83  65  54 S10       30.04S
PORT HOPE        N/A     83  66  56 SW8       30.00F
PORT HURON     MOSUNNY   79  68  69 S7        30.05S
TRI CITIES     CLOUDY    79  67  66 S10       30.00F
MIDLAND        FAIR      76  67  71 S7        29.99S
TROY           SUNNY     84  65  52 S5G16     30.06S
SAGINAW HB     CLOUDY    79  64  61 S13       30.00S
$$
MIZ043>046-050>051-056>058-064>065-071>073-077>080-281600-
SOUTHWEST LOWER MICHIGAN

CITY           SKY/WX    TMP DP  RH WIND       PRES   REMARKS
BATTLE CREEK   CLOUDY    76  66  71 S12       30.00
BENTON HARBOR  CLOUDY    76  64  66 S12G22    29.95R
BIG RAPIDS     CLOUDY    72  66  83 S7        29.95F
COLDWATER      CLOUDY    76  66  71 S7        30.02S
FREMONT        CLOUDY    73  68  85 S12       29.94S
HOLLAND        CLOUDY    76  65  68 S13       29.96R
GRAND RAPIDS   LGT RAIN  75  65  70 S13       29.97S
IONIA          FAIR      76  63  62 S14       29.99S
KALAMAZOO      CLOUDY    76  65  68 S10       29.99S
LUDINGTON      CLOUDY    73  65  76 S17G24    29.90S
MARSHALL       CLOUDY    76  66  71 S12       30.01S
MOUNT PLEASANT CLOUDY    74  66  75 S8        29.98S
MUSKEGON       CLOUDY    76  63  64 S15G26    29.94R
SOUTH HAVEN    CLOUDY    76  64  67 S10G21    29.96R
$$
MIZ016>042-281600-
NORTHERN LOWER MICHIGAN

CITY           SKY/WX    TMP DP  RH WIND       PRES   REMARKS
ALPENA         CLOUDY    72  64  76 SE6       29.98S
BEAVER ISLAND  PTSUNNY   73  66  79 S6        29.90S
BELLAIRE       CLOUDY    77  65  66 S10G17    29.91F
CADILLAC       CLOUDY    72  64  78 S14G20    29.95S
CHARLEVOIX     CLOUDY    75  67  76 SE8       29.93F
FRANKFORT      CLOUDY    75  66  73 S10G18    29.88F
GAYLORD        CLOUDY    74  65  73 S12       29.96S
GRAYLING       CLOUDY    74  66  75 S8        29.97S
HARBOR SPRINGS CLOUDY    74  66  76 S6        29.92S
HOUGHTON LAKE  CLOUDY    73  64  73 S14G22    29.98S
MANISTEE       CLOUDY    75  63  64 S8G28     29.90F
OSCODA         LGT RAIN  75  65  71 S9        30.00R
PELLSTON       CLOUDY    74  66  76 S8        29.93R
ROGERS CITY    CLOUDY    73  67  80 SE6       29.97S
TRAVERSE CITY  CLOUDY    77  65  66 VRB7G18   29.89S
$$
MIZ007>008-015-281600-
EASTERN UPPER MICHIGAN

CITY           SKY/WX    TMP DP  RH WIND       PRES   REMARKS
KINROSS          N/A     66  64  94 SE12      29.94R
MACKINAC ISLAN CLOUDY    62  62 100 SE6       29.93R
NEWBERRY       CLOUDY    68  66  93 S9        29.90R
S. S. MARIE    CLOUDY    64  61  90 E5        29.93S
MUNISING         N/A     65  63  93 S9        29.84S
$$
MIZ004>006-011>014-085-281600-
CENTRAL UPPER MICHIGAN

CITY           SKY/WX    TMP DP  RH WIND       PRES   REMARKS
MANISTIQUE     CLOUDY    61  60  96 S7        29.88S
ESCANABA       CLOUDY    61  57  88 S5        29.85S
MENOMINEE      CLOUDY    68  63  83 S10       29.83S
SAWYER-GWINN   CLOUDY    63  63 100 S10       29.84S FOG
$$
MIZ001>003-009>011-084-281600-
WESTERN UPPER MICHIGAN

CITY           SKY/WX    TMP DP  RH WIND       PRES   REMARKS
IRON MOUNTAIN  CLOUDY    65  64  97 SE6       29.81S FOG
HOUGHTON       CLOUDY    59  57  93 N3        29.80R
COPPER HARBOR    N/A     63  62  97 SW6       29.79R
IRONWOOD       CLOUDY    63  63 100 CALM      29.75S
$$

ABBREVIATIONS USED IN REMARKS
   TC - TEMPERATURE IN CELSIUS
  WCI - WIND CHILL INDEX
   HX - HEAT INDEX
  VSB - VISIBILITY





USA.gov is the U.S. government's official web portal to all federal, state and local government web resources and services.